When you browse on this site, cookies collect data to enhance your experience and personalize the content and advertising you see.
Visit our Privacy Policy to learn more. By continuing to use the site, you agree to this use of cookies and data.
  • In France
  • List of Countries
  • For 7 days
  • Water Temperature
  • Weather Map
  • Weather Widgets
  • user-avatar
    Login

    Hourly Weather Billingham

    Today, 27 May, Wednesday

    Time Temperature Precipitation Wind Pressure Humidity
    00:00 +9°C° 0 mm 2 mps 776 mmHg 86%
    01:00 +9°C° 0 mm 2 mps 776 mmHg 86%
    02:00 +9°C° 0 mm 2 mps 775 mmHg 85%
    03:00 +9°C° 0 mm 2 mps 775 mmHg 85%
    04:00 +9°C° 0 mm 2 mps 775 mmHg 81%
    05:00 +10°C° 0 mm 2 mps 775 mmHg 78%
    06:00 +12°C° 0 mm 2 mps 775 mmHg 74%
    07:00 +14°C° 0 mm 2 mps 775 mmHg 68%
    08:00 +15°C° 0 mm 2 mps 776 mmHg 61%
    09:00 +16°C° 0 mm 3 mps 776 mmHg 55%
    10:00 +16°C° 0 mm 3 mps 776 mmHg 56%
    11:00 +16°C° 0 mm 3 mps 776 mmHg 56%
    12:00 +16°C° 0 mm 3 mps 776 mmHg 57%
    13:00 +17°C° 0 mm 3 mps 776 mmHg 57%
    14:00 +17°C° 0 mm 3 mps 776 mmHg 58%
    15:00 +17°C° 0 mm 3 mps 776 mmHg 59%
    16:00 +16°C° 0 mm 3 mps 776 mmHg 62%
    17:00 +14°C° 0 mm 3 mps 776 mmHg 65%
    18:00 +15°C° 0 mm 2 mps 776 mmHg 69%
    19:00 +13°C° 0 mm 2 mps 776 mmHg 73%
    20:00 +12°C° 0 mm 1 mps 776 mmHg 78%
    21:00 +10°C° 0 mm 1 mps 776 mmHg 82%
    22:00 +10°C° 0 mm 1 mps 776 mmHg 81%
    23:00 +10°C° 0 mm 1 mps 776 mmHg 80%

    Tomorrow, 28 May, Thursday

    Time Temperature Precipitation Wind Pressure Humidity
    00:00 +9°C° 0 mm 1 mps 776 mmHg 79%
    01:00 +9°C° 0 mm 1 mps 776 mmHg 79%
    02:00 +8°C° 0 mm 2 mps 775 mmHg 79%
    03:00 +8°C° 0 mm 2 mps 775 mmHg 79%
    04:00 +9°C° 0 mm 2 mps 775 mmHg 77%
    05:00 +10°C° 0 mm 2 mps 775 mmHg 75%
    06:00 +12°C° 0 mm 2 mps 775 mmHg 74%
    07:00 +14°C° 0 mm 2 mps 774 mmHg 71%
    08:00 +16°C° 0 mm 2 mps 774 mmHg 69%
    09:00 +18°C° 0 mm 3 mps 774 mmHg 66%
    10:00 +19°C° 0 mm 2 mps 774 mmHg 65%
    11:00 +20°C° 0 mm 2 mps 774 mmHg 63%
    12:00 +21°C° 0 mm 2 mps 773 mmHg 62%
    13:00 +21°C° 0 mm 2 mps 773 mmHg 62%
    14:00 +23°C° 0 mm 2 mps 772 mmHg 62%
    15:00 +23°C° 0 mm 2 mps 772 mmHg 62%
    16:00 +23°C° 0 mm 2 mps 772 mmHg 66%
    17:00 +23°C° 0 mm 2 mps 772 mmHg 69%
    18:00 +21°C° 0 mm 2 mps 771 mmHg 73%
    19:00 +19°C° 0 mm 2 mps 772 mmHg 78%
    20:00 +18°C° 0 mm 2 mps 772 mmHg 83%
    21:00 +16°C° 0 mm 2 mps 772 mmHg 88%
    22:00 +15°C° 0 mm 2 mps 772 mmHg 89%
    23:00 +15°C° 0 mm 2 mps 771 mmHg 90%

    Day after tomorrow, 29 May, Friday

    Time Temperature Precipitation Wind Pressure Humidity
    00:00 +14°C° 0 mm 2 mps 771 mmHg 91%
    01:00 +14°C° 0 mm 2 mps 771 mmHg 91%
    02:00 +14°C° 0 mm 2 mps 771 mmHg 91%
    03:00 +13°C° 0 mm 2 mps 771 mmHg 91%
    04:00 +14°C° 0 mm 1 mps 771 mmHg 89%
    05:00 +15°C° 0 mm 1 mps 771 mmHg 86%
    06:00 +15°C° 0 mm 1 mps 770 mmHg 84%
    07:00 +18°C° 0 mm 1 mps 770 mmHg 79%
    08:00 +18°C° 0 mm 2 mps 770 mmHg 75%
    09:00 +20°C° 0 mm 2 mps 770 mmHg 70%
    10:00 +21°C° 0 mm 2 mps 770 mmHg 68%
    11:00 +21°C° 0 mm 3 mps 770 mmHg 66%
    12:00 +22°C° 0 mm 3 mps 770 mmHg 65%
    13:00 +22°C° 0 mm 3 mps 769 mmHg 65%
    14:00 +22°C° 0 mm 3 mps 769 mmHg 66%
    15:00 +22°C° 0 mm 3 mps 769 mmHg 67%
    16:00 +21°C° 0 mm 3 mps 769 mmHg 69%
    17:00 +21°C° 0 mm 3 mps 768 mmHg 71%
    18:00 +20°C° 0 mm 3 mps 768 mmHg 74%
    19:00 +18°C° 0 mm 3 mps 768 mmHg 78%
    20:00 +16°C° 0 mm 3 mps 768 mmHg 82%
    21:00 +13°C° 0 mm 3 mps 768 mmHg 86%
    22:00 +12°C° 0 mm 3 mps 769 mmHg 86%
    23:00 +11°C° 0 mm 3 mps 769 mmHg 87%

    30 May, Saturday

    Time Temperature Precipitation Wind Pressure Humidity
    00:00 +10°C° 0 mm 3 mps 769 mmHg 87%
    01:00 +10°C° 0 mm 2 mps 769 mmHg 88%
    02:00 +9°C° 0 mm 2 mps 768 mmHg 88%
    03:00 +9°C° 0 mm 2 mps 768 mmHg 89%
    04:00 +9°C° 0 mm 2 mps 768 mmHg 85%
    05:00 +10°C° 0 mm 2 mps 768 mmHg 82%
    06:00 +12°C° 0 mm 2 mps 768 mmHg 78%
    07:00 +14°C° 0 mm 2 mps 768 mmHg 73%
    08:00 +15°C° 0 mm 2 mps 768 mmHg 67%
    09:00 +17°C° 0 mm 3 mps 768 mmHg 61%
    10:00 +18°C° 0 mm 3 mps 768 mmHg 60%
    11:00 +18°C° 0 mm 4 mps 768 mmHg 59%
    12:00 +19°C° 0 mm 4 mps 768 mmHg 58%
    13:00 +19°C° 0 mm 5 mps 768 mmHg 58%
    14:00 +19°C° 0 mm 5 mps 768 mmHg 59%
    15:00 +19°C° 0 mm 5 mps 767 mmHg 60%
    16:00 +17°C° 0 mm 5 mps 767 mmHg 63%
    17:00 +17°C° 0 mm 5 mps 767 mmHg 66%
    18:00 +17°C° 0 mm 4 mps 767 mmHg 69%
    19:00 +14°C° 0 mm 4 mps 767 mmHg 75%
    20:00 +12°C° 0 mm 3 mps 767 mmHg 82%
    21:00 +10°C° 0 mm 3 mps 768 mmHg 89%
    22:00 +10°C° 0 mm 2 mps 768 mmHg 90%
    23:00 +9°C° 0 mm 2 mps 768 mmHg 91%

    31 May, Sunday

    Time Temperature Precipitation Wind Pressure Humidity
    00:00 +9°C° 0 mm 2 mps 768 mmHg 91%
    01:00 +9°C° 0 mm 2 mps 768 mmHg 92%
    02:00 +9°C° 0 mm 1 mps 768 mmHg 92%
    03:00 +9°C° 0 mm 1 mps 767 mmHg 92%
    04:00 +10°C° 0 mm 1 mps 767 mmHg 90%
    05:00 +11°C° 0 mm 1 mps 767 mmHg 87%
    06:00 +12°C° 0 mm 1 mps 767 mmHg 84%
    07:00 +13°C° 0 mm 2 mps 767 mmHg 79%
    08:00 +15°C° 0 mm 2 mps 767 mmHg 73%
    09:00 +17°C° 0 mm 3 mps 767 mmHg 68%
    10:00 +18°C° 0 mm 3 mps 767 mmHg 66%
    11:00 +18°C° 0 mm 3 mps 767 mmHg 63%
    12:00 +19°C° 0 mm 4 mps 767 mmHg 61%
    13:00 +19°C° 0 mm 4 mps 767 mmHg 62%
    14:00 +19°C° 0 mm 4 mps 767 mmHg 62%
    15:00 +19°C° 0 mm 4 mps 766 mmHg 63%
    16:00 +19°C° 0 mm 4 mps 766 mmHg 66%
    17:00 +18°C° 0 mm 4 mps 766 mmHg 69%
    18:00 +16°C° 0 mm 5 mps 766 mmHg 72%
    19:00 +15°C° 0 mm 4 mps 766 mmHg 77%
    20:00 +13°C° 0 mm 3 mps 766 mmHg 82%
    21:00 +11°C° 0 mm 3 mps 766 mmHg 87%
    22:00 +11°C° 0 mm 3 mps 766 mmHg 88%
    23:00 +10°C° 0 mm 2 mps 765 mmHg 90%

    1 June, Monday

    Time Temperature Precipitation Wind Pressure Humidity
    00:00 +9°C° 0 mm 2 mps 765 mmHg 91%
    01:00 +9°C° 0 mm 2 mps 765 mmHg 92%
    02:00 +9°C° 0 mm 2 mps 765 mmHg 93%
    03:00 +9°C° 0 mm 2 mps 764 mmHg 93%
    04:00 +10°C° 0 mm 2 mps 764 mmHg 91%
    05:00 +12°C° 0 mm 2 mps 764 mmHg 89%
    06:00 +13°C° 0 mm 2 mps 764 mmHg 86%
    07:00 +13°C° 0 mm 3 mps 764 mmHg 81%
    08:00 +16°C° 0 mm 3 mps 764 mmHg 76%
    09:00 +18°C° 0 mm 3 mps 764 mmHg 71%
    10:00 +19°C° 0 mm 4 mps 764 mmHg 68%
    11:00 +20°C° 0 mm 4 mps 764 mmHg 65%
    12:00 +20°C° 0 mm 5 mps 763 mmHg 62%
    13:00 +20°C° 0 mm 5 mps 763 mmHg 62%
    14:00 +20°C° 0 mm 5 mps 763 mmHg 61%
    15:00 +20°C° 0 mm 5 mps 763 mmHg 61%
    16:00 +19°C° 0 mm 5 mps 763 mmHg 63%
    17:00 +19°C° 0 mm 5 mps 763 mmHg 65%
    18:00 +18°C° 0 mm 4 mps 762 mmHg 67%
    19:00 +15°C° 0 mm 4 mps 763 mmHg 74%
    20:00 +13°C° 0 mm 3 mps 763 mmHg 81%
    21:00 +10°C° 0 mm 2 mps 763 mmHg 88%
    22:00 +10°C° 0 mm 2 mps 763 mmHg 89%
    23:00 +10°C° 0 mm 1 mps 763 mmHg 90%
    Show more